Regional Weather Roundup
Issued by NWS

Home | Current Version | Previous Version | Text Only | Print | Product List | Glossary Off
Versions: 1 2 3 4 5 6 7 8 9 10 11 12 13 14 15 16 17 18 19 20 21 22 23 24 25 26 27 28 29 30 31 32 33 34 35 36 37 38 39 40 41 42 43 44 45 46 47 48 49 50

000
ASUS43 KBIS 260801
RWRND

NORTH DAKOTA REGIONAL WEATHER ROUNDUP
NATIONAL WEATHER SERVICE BISMARCK ND
300 AM CDT TUE MAY 26 2015

NOTE: "FAIR" INDICATES FEW OR NO CLOUDS BELOW 12,000 FEET WITH NO
SIGNIFICANT WEATHER AND/OR OBSTRUCTIONS TO VISIBILITY.


NDZ001>003-009>011-017-260900-
NORTHWEST NORTH DAKOTA

CITY           SKY/WX    TMP DP  RH WIND       PRES   REMARKS
WILLISTON      CLEAR     45  42  89 CALM      29.91R
MINOT          CLEAR     58  46  64 SW12      29.85R
MINOT AFB      CLEAR     56  51  82 W9        29.84R
$$

NDZ018>021-031>035-040>046-260900-
SOUTHWEST NORTH DAKOTA

CITY           SKY/WX    TMP DP  RH WIND       PRES   REMARKS
BISMARCK       PTCLDY    53  50  89 W5        29.91S
DICKINSON      CLEAR     46  43  89 SW5       29.92F
GARRISON         N/A     52  48  86 W10       29.89R
HETTINGER ARPT FOG       43  41  93 CALM      29.96S VSB 1/4
$$

NDZ004>008-012>016-024-026-027-054-260900-
NORTHEAST NORTH DAKOTA

CITY           SKY/WX    TMP DP  RH WIND       PRES   REMARKS
GRAND FORKS    CLEAR     55  50  83 S10       29.82F
GRND FRKS AFB  CLEAR     58  49  72 SW12      29.82F
DEVILS LAKE    PTCLDY    61  48  63 SW6       29.81R
$$

NDZ022-023-025-028>030-036>039-047>053-260900-
SOUTHEAST NORTH DAKOTA

CITY           SKY/WX    TMP DP  RH WIND       PRES   REMARKS
FARGO          CLEAR     49  48  97 SW3       29.86F FOG
JAMESTOWN      PTCLDY    56  52  86 SW7       29.85F
$$



USA.gov is the U.S. government's official web portal to all federal, state and local government web resources and services.